Find Starlink 30859

NORAD ID: 58371 Int'l Des: 2023-177 Owner: SPXS Country: US Constellation: starlink operational
LEOCIRCULAR

リアルタイム位置

3D地球を読み込み中...

Starlink 30859について

説明を読み込み中...

次回通過

Passes for default location (London). Set your location on the main map for personalized predictions.

高度履歴

Loading altitude history...

軌道要素

1 58371U 23177W 26127.40987028 -.00001863 00000-0 -58198-4 0 9995
2 58371 43.0060 19.3157 0001161 263.1411 96.9308 15.27571738137217
Epoch: May 7, 2026 • Age: 19 hours

現在のステータス

高度 485.1 km
速度 7.62 km/s
衛星直下点 -12.37°S, 66.52°E
打ち上げ日 Nov 18, 2023
運用期間 2.4 years
タイプ internet

技術仕様

分類 Payload
質量 730.00 kg
乾燥質量 700.00 kg
総質量 730.00 kg
長さ 0.30 m
直径 4.10 m
スパン 29.00 m
形状 Box + pan
製造者 SPXS
バスタイプ Starlink V2M
フェーズステータス In Orbit
所有者/国 SPXS/US

Most Searched